Weather in Opolye

Russia / Vladimir Oblast     56°33′06″N   39°38′33″E
temp.,
°C
wind,
m/s
gust,
m/s
humid.,
%
clouds,
%
prec.,
mm/h
press.,
hPa
HPBL,
m
14 august, sun
sun1400:00+18e226994 0.0 102211
03:00+16se227970 0.0 102111
06:00+17se117782 0.0 102211
09:00+23se225884 0.0 1021439
12:00+26se3347100 0.0 10211590
15:00+27se3243100 0.0 10212004
18:00+24se2352100 0.0 102056
21:00+22ese2256100 0.0 102122
15 august, mon
mon1500:00+21se2358100 0.0 102156
03:00+20se2359100 0.0 102159
06:00+19se2468100 0.0 1022115
09:00+24se345195 0.0 1022425
12:00+27ese5637100 0.0 10221972
15:00+26se4537100 0.0 10221747
18:00+25se244399 0.0 1021199
21:00+20ese485371 0.0 1022122
16 august, tue
tue1600:00+18ese486291 0.0 1023147
03:00+17se387098 0.0 1024125
06:00+17se377381 0.0 1024139
09:00+24se464933 0.0 1024597
12:00+27se563897 0.0 10232040
15:00+28se45348 0.0 10222403
18:00+27e573899 0.0 10211048
21:00+20ese4115699 0.0 1022200
17 august, wed
wed1700:00+18ese49674 0.0 1022153
03:00+16e37765 0.0 1022112
06:00+16e38745 0.0 1022152
09:00+23e68475 0.0 1021538
12:00+28ese67342 0.0 10201403
15:00+30ese55305 0.0 10192077
18:00+28ese563597 0.0 1019924
21:00+21ese41156100 0.0 1019235
18 august, thu
thu1800:00+18e410645 0.0 1020175
03:00+16ese367358 0.0 1021113
06:00+16e38730 0.0 1021177
09:00+23ese68450 0.0 1022617
12:00+27e56350 0.0 10211753
15:00+28ese67260 0.0 10202120
18:00+27ese68320 0.0 10211527
21:00+20e412545 0.0 1022243